Location: Girdwood
(60.9430°N, 149.1660°W)
Time: 07:03:09
(UTC-09:00)

Amateur Radio Satellites - All Passes

Search period start: 05 March 2015 06:33
Search period end: 06 March 2015 06:33
Location: Girdwood, 60.9430°N, 149.1660°W

Satellite Date Start Highest point End Downlink Frequencies (MHz)
Time Altitude Azimuth
Gurwin Techsat 1B 05 Mar 06:33:27 06:37:13 20° 320° (NW) 06:40:55 435.225
Oscar 19 05 Mar 06:41:16 06:42:22 11° 337° (NNW) 06:43:24 437.125/150
ITAMSAT 1 05 Mar 06:44:44 06:47:51 16° 326° (NW) 06:50:53 435.822/435.867
AO-7 05 Mar 06:50:20 06:58:36 70° 304° (WNW) 07:06:49 29.400- 29.500
YUBILEINY 05 Mar 07:09:13 07:13:20 14° 302° (WNW) 07:17:04 435.215
Cubesat XI-IV 05 Mar 07:13:36 07:18:51 49° 99° (E) 07:24:04 437.490
PRISM 05 Mar 07:17:23 07:21:01 28° 267° (W) 07:24:42 437.425
AIST 1 05 Mar 07:20:15 07:24:18 37° 93° (E) 07:28:25
CUTE-I 05 Mar 07:21:43 07:27:01 54° 101° (E) 07:32:17 437.470
PCSat 05 Mar 07:22:44 07:24:36 12° 256° (WSW) 07:26:15 145.827
STRAND 1 05 Mar 07:23:40 07:28:37 44° 262° (W) 07:33:35 437.568
GONETS M04 05 Mar 07:25:48 07:33:50 39° 50° (NE) 07:41:58
HORYU 2 05 Mar 07:30:22 07:32:49 14° 320° (NW) 07:35:10 437.375
CUBESAT XI-V 05 Mar 07:47:17 07:51:03 23° 273° (W) 07:54:47 437.345
SO-50 05 Mar 07:48:09 07:53:03 72° 22° (NNE) 07:58:01 436.795
ANTELSAT 05 Mar 07:50:21 07:51:56 12° 39° (NE) 07:53:36 437.575/2403.000
RS-15 05 Mar 07:51:51 08:02:57 68° 226° (SW) 08:14:31 29.354- 29.394
JAS-2 05 Mar 07:56:15 08:02:37 37° 311° (NW) 08:09:25 435.910
GOMX 1 05 Mar 08:18:26 08:20:12 12° 78° (ENE) 08:22:03 467.674
SEEDS 05 Mar 08:23:04 08:23:46 10° 78° (ENE) 08:24:39 437.485
BUGSAT 1 05 Mar 08:26:28 08:28:02 12° 39° (NE) 08:29:41 437.445
BRITE-PL 05 Mar 08:27:46 08:31:09 20° 84° (E) 08:34:28 437.365/2234.400
CANX-2 05 Mar 08:29:49 08:32:09 14° 82° (E) 08:34:36 2200.000
QB50P1 05 Mar 08:30:46 08:33:02 14° 43° (NE) 08:35:23 145.935-145.965
QB50P2 05 Mar 08:35:26 08:37:53 15° 44° (NE) 08:40:26 145.880/145.840
DOVE 4 05 Mar 08:39:04 08:40:59 13° 79° (E) 08:43:01 437.250
AO-7 05 Mar 08:43:12 08:50:25 34° 329° (NNW) 08:57:33 29.400- 29.500
UNISAT 6 05 Mar 08:45:42 08:49:05 23° 52° (NE) 08:52:30 437.425
DUCHIFAT 1 05 Mar 08:47:25 08:50:12 17° 46° (NE) 08:53:02 145.980
CUTE 1.7 + AOD 2 05 Mar 08:47:35 08:50:32 18° 86° (E) 08:53:34 437.475
HO-68 05 Mar 08:51:59 08:58:04 29° 88° (E) 09:04:16 435.675
Cubesat XI-IV 05 Mar 08:53:52 08:59:02 47° 301° (WNW) 09:04:09 437.490
AIST 1 05 Mar 08:57:44 09:01:58 44° 294° (WNW) 09:06:14
CUTE-I 05 Mar 09:02:00 09:07:05 43° 303° (WNW) 09:12:07 437.470
STRAND 1 05 Mar 09:07:53 09:09:19 11° 285° (WNW) 09:10:31 437.568
TIGRISAT 05 Mar 09:08:47 09:12:33 30° 57° (ENE) 09:16:20 435.000
POPSAT HIP 1 05 Mar 09:09:24 09:12:44 23° 52° (NE) 09:16:08 437.405
POLYITAN 1 05 Mar 09:10:24 09:13:46 23° 52° (NE) 09:17:11 437.675
O/OREOS (USA 219) 05 Mar 09:16:47 09:20:15 22° 106° (ESE) 09:23:47 437.305
AAUSAT CUBESAT 2 05 Mar 09:20:01 09:23:18 22° 89° (E) 09:26:37 437.432
GONETS M04 05 Mar 09:23:01 09:31:49 87° 259° (W) 09:40:38
ANTELSAT 05 Mar 09:23:47 09:27:47 38° 60° (ENE) 09:31:47 437.575/2403.000
COMPASS 1 05 Mar 09:24:52 09:28:26 26° 91° (E) 09:32:01 437.405
SO-50 05 Mar 09:28:48 09:33:34 50° 223° (SW) 09:38:21 436.795
NANOSAT C BR1 05 Mar 09:30:51 09:34:34 30° 57° (ENE) 09:38:20 145.865
Oscar 11 05 Mar 09:34:41 09:37:38 18° 85° (E) 09:40:40 145.826/435.025
JAS-2 05 Mar 09:41:28 09:46:02 19° 335° (NNW) 09:50:45 435.910
DANDE 05 Mar 09:51:08 09:53:11 17° 52° (NE) 09:55:05 436.750
GOMX 1 05 Mar 09:55:02 09:59:31 58° 101° (ESE) 10:03:45 467.674
Oscar 19 05 Mar 09:55:09 09:56:47 12° 27° (NNE) 09:58:31 437.125/150
SEEDS 05 Mar 09:56:33 10:00:42 50° 100° (E) 10:04:51 437.485
BUGSAT 1 05 Mar 09:58:36 10:02:34 38° 60° (ENE) 10:06:32 437.445
CINEMA 3 05 Mar 10:01:07 10:04:54 31° 93° (E) 10:08:40 145.822/145.860
CUBEBUG 2 05 Mar 10:01:39 10:04:53 22° 88° (E) 10:08:10 437.445
CUSAT 1 05 Mar 10:02:50 10:05:11 23° 59° (ENE) 10:07:24 437.405
QB50P1 05 Mar 10:03:59 10:08:07 49° 64° (ENE) 10:12:17 145.935-145.965
RS-15 05 Mar 10:04:21 10:13:37 30° 253° (WSW) 10:22:56 29.354- 29.394
DX 1 05 Mar 10:04:21 10:07:11 17° 85° (E) 10:10:06 434.975-435.025
CANX-2 05 Mar 10:04:41 10:08:57 70° 104° (ESE) 10:13:12 2200.000
BRITE-PL 05 Mar 10:05:43 10:10:31 89° 288° (WNW) 10:14:55 437.365/2234.400
HUMSAT D 05 Mar 10:08:13 10:09:45 12° 80° (E) 10:11:26 437.325/437.525
QB50P2 05 Mar 10:08:53 10:13:03 54° 65° (ENE) 10:17:15 145.880/145.840
DELFI C3 05 Mar 10:09:36 10:13:03 26° 91° (E) 10:16:32 145.870
DOVE 4 05 Mar 10:15:28 10:19:50 63° 102° (ESE) 10:24:01 437.250
UNISAT 6 05 Mar 10:21:08 10:25:29 86° 251° (WSW) 10:29:49 437.425
DUCHIFAT 1 05 Mar 10:21:09 10:25:24 65° 68° (ENE) 10:29:38 145.980
AISAT 05 Mar 10:22:07 10:24:10 13° 81° (E) 10:26:23 437.250
CUTE 1.7 + AOD 2 05 Mar 10:22:50 10:27:08 89° 106° (ESE) 10:31:25 437.475
FUNcube-1 05 Mar 10:25:29 10:28:55 24° 91° (E) 10:32:24 145.935
ZACube-1 05 Mar 10:27:51 10:31:21 26° 91° (E) 10:34:54 437.345
UKube-1 05 Mar 10:29:37 10:33:11 24° 91° (E) 10:36:45 .
VELOX 1 05 Mar 10:29:53 10:32:20 15° 82° (E) 10:34:55 145.980
Cubesat XI-IV 05 Mar 10:34:35 10:38:07 18° 324° (NW) 10:41:33 437.490
AO-7 05 Mar 10:34:53 10:41:10 25° 356° (N) 10:47:26 29.400- 29.500
AIST 1 05 Mar 10:38:51 10:40:54 13° 318° (NW) 10:42:50
HO-68 05 Mar 10:39:35 10:46:51 86° 113° (ESE) 10:54:06 435.675
CUTE-I 05 Mar 10:42:43 10:46:04 17° 325° (NW) 10:49:19 437.470
POPSAT HIP 1 05 Mar 10:43:55 10:48:14 86° 252° (WSW) 10:52:33 437.405
TIGRISAT 05 Mar 10:44:52 10:49:09 59° 257° (WSW) 10:53:25 435.000
POLYITAN 1 05 Mar 10:45:01 10:49:19 84° 253° (WSW) 10:53:37 437.675
UWE-3 05 Mar 10:53:48 10:57:50 46° 99° (E) 11:01:51 435.000/436.395/437.385
O/OREOS (USA 219) 05 Mar 10:54:32 10:59:09 88° 128° (SE) 11:03:48 437.305
AAUSAT CUBESAT 2 05 Mar 10:55:13 10:59:26 74° 290° (WNW) 11:03:37 437.432
ESTCUBE 1 05 Mar 10:56:55 10:59:29 15° 82° (E) 11:02:10 437.505/2401.250
COMPASS 1 05 Mar 11:00:19 11:04:30 62° 293° (WNW) 11:08:40 437.405
ANTELSAT 05 Mar 11:00:26 11:04:36 44° 261° (W) 11:08:44 437.575/2403.000
NANOSAT C BR1 05 Mar 11:06:01 11:10:15 60° 257° (WSW) 11:14:30 145.865
50 SAT 05 Mar 11:07:06 11:10:22 24° 91° (E) 11:13:40 437.505
Oscar 11 05 Mar 11:10:09 11:14:32 85° 107° (ESE) 11:18:53 145.826/435.025
SO-50 05 Mar 11:10:19 11:13:15 16° 244° (WSW) 11:16:05 436.795
ISS 05 Mar 11:16:55 11:18:54 15° 171° (S) 11:20:53 145.825
GONETS M04 05 Mar 11:20:21 11:27:47 32° 282° (WNW) 11:35:06
JAS-2 05 Mar 11:25:23 11:28:41 14° 1° (N) 11:32:10 435.910
Gurwin Techsat 1B 05 Mar 11:28:07 11:31:07 16° 34° (NNE) 11:34:13 435.225
Oscar 19 05 Mar 11:30:27 11:34:43 28° 50° (NE) 11:39:03 437.125/150
SEEDS 05 Mar 11:32:36 11:36:27 34° 301° (WNW) 11:40:15 437.485
GOMX 1 05 Mar 11:33:28 11:37:29 31° 304° (NW) 11:41:17 467.674
BUGSAT 1 05 Mar 11:33:55 11:38:02 45° 261° (W) 11:42:10 437.445
DANDE 05 Mar 11:34:03 11:36:52 43° 260° (W) 11:39:23 436.750
ITAMSAT 1 05 Mar 11:36:54 11:40:25 19° 39° (NE) 11:44:02 435.822/435.867
CUBEBUG 2 05 Mar 11:37:55 11:42:07 73° 290° (WNW) 11:46:16 437.445
CINEMA 3 05 Mar 11:38:16 11:42:23 50° 296° (WNW) 11:46:24 145.822/145.860
DX 1 05 Mar 11:39:48 11:44:13 79° 107° (ESE) 11:48:36 434.975-435.025
QB50P1 05 Mar 11:40:16 11:44:12 33° 265° (W) 11:48:06 145.935-145.965
CANX-2 05 Mar 11:41:01 11:44:36 26° 305° (NW) 11:48:09 2200.000
HUMSAT D 05 Mar 11:42:24 11:46:30 60° 103° (ESE) 11:50:35 437.325/437.525
DELFI C3 05 Mar 11:44:32 11:48:36 60° 293° (WNW) 11:52:38 145.870
BRITE-PL 05 Mar 11:44:44 11:48:32 23° 311° (NW) 11:52:02 437.365/2234.400
QB50P2 05 Mar 11:45:24 11:49:14 31° 266° (W) 11:53:03 145.880/145.840
CUSAT 1 05 Mar 11:45:43 11:48:02 24° 264° (W) 11:50:14 437.405
CUBEBUG 1 05 Mar 11:50:07 11:54:04 31° 93° (E) 11:58:01 437.445
DOVE 4 05 Mar 11:53:36 11:57:24 28° 305° (NW) 12:01:01 437.250
AISAT 05 Mar 11:57:22 12:01:49 60° 103° (ESE) 12:06:13 437.250
DUCHIFAT 1 05 Mar 11:58:00 12:01:38 26° 269° (W) 12:05:12 145.980
CUTE 1.7 + AOD 2 05 Mar 11:59:19 12:02:37 22° 308° (NW) 12:05:54 437.475
UNISAT 6 05 Mar 11:59:59 12:03:00 18° 274° (W) 12:05:54 437.425
FUNcube-1 05 Mar 12:01:33 12:05:41 64° 292° (WNW) 12:09:48 145.935
TISAT 1 05 Mar 12:03:31 12:05:47 14° 83° (E) 12:08:09 437.305
ZACube-1 05 Mar 12:03:59 12:08:07 61° 293° (WNW) 12:12:13 437.345
VELOX 1 05 Mar 12:05:21 12:09:51 67° 105° (ESE) 12:14:16 145.980
UKube-1 05 Mar 12:05:25 12:09:47 71° 293° (WNW) 12:14:08 .
SPROUT 05 Mar 12:10:23 12:13:18 18° 85° (E) 12:16:19 437.525
HORYU 2 05 Mar 12:16:41 12:16:58 10° 32° (NNE) 12:17:20 437.375
POPSAT HIP 1 05 Mar 12:21:48 12:24:48 18° 274° (W) 12:27:44 437.405
POLYITAN 1 05 Mar 12:23:01 12:25:57 17° 274° (W) 12:28:48 437.675
AO-7 05 Mar 12:24:57 12:31:46 30° 24° (NNE) 12:38:38 29.400- 29.500
TIGRISAT 05 Mar 12:25:03 12:26:55 12° 280° (W) 12:28:38 435.000
HO-68 05 Mar 12:27:36 12:34:08 38° 315° (NW) 12:40:36 435.675
UWE-3 05 Mar 12:30:32 12:34:22 35° 300° (WNW) 12:38:09 435.000/436.395/437.385
AAUSAT CUBESAT 2 05 Mar 12:31:35 12:34:31 19° 311° (NW) 12:37:25 437.432
ESTCUBE 1 05 Mar 12:32:43 12:37:19 67° 104° (ESE) 12:41:52 437.505/2401.250
O/OREOS (USA 219) 05 Mar 12:34:54 12:39:06 33° 331° (NNW) 12:43:18 437.305
COMPASS 1 05 Mar 12:36:52 12:39:33 16° 313° (NW) 12:42:10 437.405
50 SAT 05 Mar 12:41:47 12:45:42 60° 293° (WNW) 12:49:37 437.505
NANOSAT C BR1 05 Mar 12:45:09 12:47:06 13° 279° (W) 12:48:54 145.865
Oscar 11 05 Mar 12:46:50 12:50:19 23° 308° (NW) 12:53:43 145.826/435.025
ISS 05 Mar 12:52:33 12:54:30 15° 190° (S) 12:56:26 145.825
Gurwin Techsat 1B 05 Mar 13:05:01 13:09:57 40° 57° (ENE) 13:14:56 435.225
JAS-2 05 Mar 13:07:05 13:11:23 20° 27° (NNE) 13:16:07 435.910
SWISSCUBE 05 Mar 13:08:17 13:10:51 14° 81° (E) 13:13:33 437.505
Oscar 19 05 Mar 13:08:30 13:13:39 88° 245° (WSW) 13:18:50 437.125/150
SEEDS 05 Mar 13:10:14 13:11:13 11° 322° (NW) 13:12:06 437.485
GOMX 1 05 Mar 13:13:18 13:14:24 11° 327° (NNW) 13:15:23 467.674
ITAMSAT 1 05 Mar 13:13:57 13:19:01 53° 62° (ENE) 13:24:09 435.822/435.867
CUBEBUG 2 05 Mar 13:15:22 13:18:16 18° 311° (NW) 13:21:05 437.445
BEESAT 05 Mar 13:16:11 13:18:57 15° 82° (E) 13:21:52 436.000
DX 1 05 Mar 13:16:29 13:20:07 25° 308° (NW) 13:23:41 434.975-435.025
CINEMA 3 05 Mar 13:16:32 13:18:47 14° 317° (NW) 13:20:55 145.822/145.860
HUMSAT D 05 Mar 13:18:32 13:22:06 28° 303° (WNW) 13:25:37 437.325/437.525
DELFI C3 05 Mar 13:20:37 13:23:08 16° 313° (NW) 13:25:34 145.870
CUBEBUG 1 05 Mar 13:26:21 13:30:44 56° 295° (WNW) 13:35:03 437.445
AISAT 05 Mar 13:34:16 13:38:15 32° 304° (NW) 13:42:11 437.250
TISAT 1 05 Mar 13:38:12 13:42:28 69° 105° (ESE) 13:46:41 437.305
FUNcube-1 05 Mar 13:38:44 13:41:24 17° 313° (NW) 13:44:00 145.935
ZACube-1 05 Mar 13:41:14 13:43:50 16° 314° (NW) 13:46:20 437.345
UKube-1 05 Mar 13:42:14 13:45:22 19° 313° (NW) 13:48:25 .
VELOX 1 05 Mar 13:42:17 13:46:10 29° 306° (NW) 13:50:00 145.980
ITUPSAT 1 05 Mar 13:45:02 13:48:53 23° 88° (E) 13:52:47 437.325
SPROUT 05 Mar 13:45:45 13:50:07 86° 109° (ESE) 13:54:25 437.525
HORYU 2 05 Mar 13:48:38 13:52:25 28° 54° (NE) 13:56:14 437.375
CUTE-I 05 Mar 14:01:47 14:02:02 10° 15° (NNE) 14:02:22 437.470
UWE-3 05 Mar 14:08:48 14:09:54 11° 322° (NW) 14:10:55 435.000/436.395/437.385
ESTCUBE 1 05 Mar 14:09:57 14:13:57 30° 305° (NW) 14:17:55 437.505/2401.250
KKS-1 05 Mar 14:13:26 14:14:52 11° 79° (E) 14:16:28 437.445
HO-68 05 Mar 14:15:10 14:20:13 21° 341° (NNW) 14:25:12 435.675
AO-7 05 Mar 14:15:12 14:23:13 55° 49° (NE) 14:31:17 29.400- 29.500
O/OREOS (USA 219) 05 Mar 14:16:13 14:19:47 21° 356° (N) 14:23:22 437.305
50 SAT 05 Mar 14:17:43 14:20:04 15° 313° (NW) 14:22:20 437.505
YUBILEINY 05 Mar 14:34:46 14:40:29 20° 66° (ENE) 14:46:29 435.215
Gurwin Techsat 1B 05 Mar 14:44:35 14:49:51 58° 258° (WSW) 14:55:09 435.225
SWISSCUBE 05 Mar 14:44:59 14:49:48 61° 103° (ESE) 14:54:35 437.505
JAS-2 05 Mar 14:49:17 14:54:55 42° 52° (NE) 15:01:19 435.910
Oscar 19 05 Mar 14:49:46 14:53:47 22° 273° (W) 14:57:44 437.125/150
BEESAT 05 Mar 14:53:00 14:57:49 65° 104° (ESE) 15:02:37 436.000
ITAMSAT 1 05 Mar 14:53:47 14:58:44 41° 263° (W) 15:03:43 435.822/435.867
CUBEBUG 1 05 Mar 15:03:32 15:06:21 16° 316° (NW) 15:09:03 437.445
AISAT 05 Mar 15:12:25 15:13:43 11° 326° (NW) 15:14:56 437.250
TISAT 1 05 Mar 15:14:23 15:18:00 27° 306° (NW) 15:21:32 437.305
VELOX 1 05 Mar 15:20:45 15:21:33 10° 328° (NNW) 15:22:15 145.980
SPROUT 05 Mar 15:22:22 15:25:48 23° 308° (NW) 15:29:10 437.525
ITUPSAT 1 05 Mar 15:22:33 15:27:25 83° 292° (WNW) 15:32:16 437.325
HORYU 2 05 Mar 15:24:23 15:28:49 69° 255° (WSW) 15:33:16 437.375
Cubesat XI-IV 05 Mar 15:28:50 15:32:26 19° 38° (NE) 15:36:06 437.490
CUTE-I 05 Mar 15:36:35 15:40:19 20° 40° (NE) 15:44:09 437.470
AIST 1 05 Mar 15:40:38 15:41:26 10° 37° (NE) 15:42:22
STARS 05 Mar 15:47:02 15:51:10 38° 97° (E) 15:55:18 437.465
KKS-1 05 Mar 15:48:15 15:52:39 53° 101° (ESE) 15:57:01 437.445
ESTCUBE 1 05 Mar 15:48:28 15:49:38 11° 327° (NNW) 15:50:42 437.505/2401.250
O/OREOS (USA 219) 05 Mar 15:56:41 16:00:36 26° 21° (NNE) 16:04:31 437.305
HO-68 05 Mar 16:01:08 16:05:40 18° 7° (N) 16:10:15 435.675
AO-7 05 Mar 16:07:46 16:16:05 64° 254° (WSW) 16:24:22 29.400- 29.500
SWISSCUBE 05 Mar 16:23:07 16:27:30 35° 305° (NW) 16:31:50 437.505
YUBILEINY 05 Mar 16:27:03 16:35:33 58° 92° (E) 16:44:09 435.215
Gurwin Techsat 1B 05 Mar 16:28:01 16:31:06 15° 281° (WNW) 16:34:00 435.225
BEESAT 05 Mar 16:31:09 16:35:28 33° 305° (NW) 16:39:43 436.000
JAS-2 05 Mar 16:33:52 16:39:47 67° 257° (WSW) 16:46:35 435.910
ITAMSAT 1 05 Mar 16:39:31 16:39:51 10° 287° (WNW) 16:39:56 435.822/435.867
ITUPSAT 1 05 Mar 17:00:56 17:04:48 24° 312° (NW) 17:08:36 437.325
BEESAT 2 05 Mar 17:02:45 17:04:22 12° 116° (ESE) 17:06:06 435.950
HORYU 2 05 Mar 17:03:45 17:06:23 15° 277° (W) 17:08:54 437.375
Cubesat XI-IV 05 Mar 17:06:23 17:11:34 51° 60° (ENE) 17:16:49 437.490
AUBIESAT-1 05 Mar 17:08:11 17:11:21 21° 97° (E) 17:14:46 437.475
M-CUBED/EXP-1 PRIME 05 Mar 17:09:03 17:12:22 23° 99° (E) 17:15:55 437.505
CUTE-I 05 Mar 17:14:17 17:19:31 55° 62° (ENE) 17:24:48 437.470
AIST 1 05 Mar 17:16:30 17:20:34 34° 61° (ENE) 17:24:38
MOZHAYETS 4 05 Mar 17:23:31 17:27:49 36° 95° (E) 17:32:09
STARS 05 Mar 17:23:32 17:27:46 45° 298° (WNW) 17:31:57 437.465
KKS-1 05 Mar 17:25:08 17:29:12 35° 302° (WNW) 17:33:14 437.445
O/OREOS (USA 219) 05 Mar 17:36:15 17:40:51 62° 44° (NE) 17:45:26 437.305
HO-68 05 Mar 17:45:35 17:51:22 28° 33° (NNE) 17:57:15 435.675
CUBESAT XI-V 05 Mar 17:56:21 17:58:09 12° 77° (ENE) 18:00:08 437.345
CANX-2 05 Mar 17:59:52 18:01:07 11° 39° (NE) 18:02:28 2200.000
GOMX 1 05 Mar 18:00:04 18:02:40 15° 41° (NE) 18:05:18 467.674
SWISSCUBE 05 Mar 18:02:04 18:04:13 13° 327° (NNW) 18:06:16 437.505
AO-7 05 Mar 18:04:29 18:10:46 22° 279° (W) 18:16:50 29.400- 29.500
BEESAT 3 05 Mar 18:08:36 18:12:20 34° 131° (SE) 18:16:08 437.485
BEESAT 05 Mar 18:10:10 18:12:07 12° 328° (NNW) 18:13:58 436.000
BRITE-PL 05 Mar 18:11:12 18:15:03 21° 47° (NE) 18:18:49 437.365/2234.400
CUTE 1.7 + AOD 2 05 Mar 18:17:04 18:19:01 13° 42° (NE) 18:21:04 437.475
DOVE 4 05 Mar 18:18:47 18:21:11 14° 41° (NE) 18:23:37 437.250
JAS-2 05 Mar 18:22:04 18:26:28 20° 284° (WNW) 18:31:03 435.910
YUBILEINY 05 Mar 18:23:59 18:32:37 56° 298° (WNW) 18:41:19 435.215
BEESAT 2 05 Mar 18:37:42 18:41:41 45° 136° (SE) 18:45:43 435.950
AUBIESAT-1 05 Mar 18:42:34 18:46:42 87° 296° (WNW) 18:51:10 437.475
M-CUBED/EXP-1 PRIME 05 Mar 18:43:36 18:47:43 80° 298° (WNW) 18:52:10 437.505
Cubesat XI-IV 05 Mar 18:46:39 18:51:50 45° 262° (W) 18:57:01 437.490
AAUSAT CUBESAT 2 05 Mar 18:47:29 18:49:46 15° 45° (NE) 18:52:07 437.432
PRISM 05 Mar 18:49:25 18:52:52 24° 91° (E) 18:56:21 437.425
COMPASS 1 05 Mar 18:52:23 18:55:01 17° 47° (NE) 18:57:43 437.405
AIST 1 05 Mar 18:54:09 18:58:27 50° 264° (W) 19:02:43
AIST 2 05 Mar 18:54:37 18:58:30 34° 131° (SE) 19:02:26 435.215
CUTE-I 05 Mar 18:54:45 18:59:50 41° 263° (W) 19:04:56 437.470
MOZHAYETS 4 05 Mar 19:00:45 19:05:16 51° 296° (WNW) 19:09:46
STARS 05 Mar 19:01:01 19:03:21 14° 320° (NW) 19:05:36 437.465
KKS-1 05 Mar 19:03:06 19:04:47 12° 324° (NW) 19:06:22 437.445
Oscar 11 05 Mar 19:05:35 19:07:45 14° 42° (NE) 19:10:01 145.826/435.025
O/OREOS (USA 219) 05 Mar 19:15:55 19:20:08 35° 247° (WSW) 19:24:18 437.305
STRAND 1 05 Mar 19:23:29 19:28:07 32° 93° (E) 19:32:45 437.568
SEEDS 05 Mar 19:23:44 19:27:17 28° 56° (NE) 19:30:53 437.485
HO-68 05 Mar 19:31:04 19:38:04 62° 58° (ENE) 19:45:10 435.675
CUBESAT XI-V 05 Mar 19:32:09 19:36:49 53° 100° (E) 19:41:26 437.345
CANX-2 05 Mar 19:32:12 19:36:03 36° 60° (ENE) 19:39:58 2200.000
DELFI C3 05 Mar 19:34:12 19:36:37 16° 47° (NE) 19:39:07 145.870
CUBEBUG 2 05 Mar 19:35:04 19:37:47 17° 47° (NE) 19:40:32 437.445
GOMX 1 05 Mar 19:35:04 19:39:54 43° 61° (ENE) 19:44:27 467.674
DX 1 05 Mar 19:35:33 19:38:04 15° 42° (NE) 19:40:41 434.975-435.025
CINEMA 3 05 Mar 19:36:46 19:40:21 24° 53° (NE) 19:43:52 145.822/145.860
BEESAT 3 05 Mar 19:46:01 19:50:12 81° 332° (NNW) 19:54:24 437.485
BRITE-PL 05 Mar 19:47:32 19:52:56 66° 68° (ENE) 19:57:59 437.365/2234.400
CUTE 1.7 + AOD 2 05 Mar 19:50:04 19:54:05 45° 63° (ENE) 19:58:09 437.475
DOVE 4 05 Mar 19:53:27 19:58:04 44° 62° (ENE) 20:02:28 437.250
AISAT 05 Mar 19:55:36 19:57:40 13° 38° (NE) 19:59:49 437.250
FUNcube-1 05 Mar 19:56:43 19:59:29 17° 48° (NE) 20:02:19 145.935
ZACube-1 05 Mar 19:59:09 20:02:02 18° 49° (NE) 20:04:57 437.345
UKube-1 05 Mar 19:59:48 20:02:53 20° 47° (NE) 20:06:03 .
VELOX 1 05 Mar 20:03:06 20:05:24 14° 39° (NE) 20:07:46 145.980
BEESAT 2 05 Mar 20:15:37 20:19:48 68° 337° (NNW) 20:24:00 435.950
AUBIESAT-1 05 Mar 20:17:56 20:21:13 24° 316° (NW) 20:24:40 437.475
M-CUBED/EXP-1 PRIME 05 Mar 20:19:05 20:22:15 22° 317° (NW) 20:25:35 437.505
AAUSAT CUBESAT 2 05 Mar 20:20:37 20:24:39 53° 66° (ENE) 20:28:45 437.432
PRISM 05 Mar 20:24:34 20:28:49 70° 292° (WNW) 20:33:02 437.425
YUBILEINY 05 Mar 20:24:39 20:31:48 26° 327° (NNW) 20:38:53 435.215
UWE-3 05 Mar 20:25:17 20:28:57 28° 56° (ENE) 20:32:37 435.000/436.395/437.385
COMPASS 1 05 Mar 20:25:57 20:30:05 64° 68° (ENE) 20:34:15 437.405
PCSat 05 Mar 20:29:42 20:33:39 21° 113° (ESE) 20:37:44 145.827
50 SAT 05 Mar 20:30:32 20:32:47 15° 47° (NE) 20:35:07 437.505
Cubesat XI-IV 05 Mar 20:31:38 20:33:29 11° 285° (WNW) 20:35:06 437.490
ESTCUBE 1 05 Mar 20:31:58 20:34:17 14° 39° (NE) 20:36:42 437.505/2401.250
AIST 2 05 Mar 20:32:32 20:36:52 82° 332° (NNW) 20:41:13 435.215
AIST 1 05 Mar 20:34:09 20:35:11 11° 285° (WNW) 20:36:02
MOZHAYETS 4 05 Mar 20:38:50 20:41:39 16° 318° (NW) 20:44:23
Oscar 11 05 Mar 20:38:58 20:43:05 46° 63° (ENE) 20:47:15 145.826/435.025
CUTE-I 05 Mar 20:41:00 20:41:35 10° 287° (WNW) 20:41:54 437.470
GONETS M04 05 Mar 20:42:43 20:49:18 26° 72° (ENE) 20:56:05
SEEDS 05 Mar 20:58:42 21:02:52 65° 257° (WSW) 21:07:04 437.485
STRAND 1 05 Mar 21:02:35 21:07:44 66° 295° (WNW) 21:12:50 437.568
DELFI C3 05 Mar 21:07:09 21:11:10 61° 67° (ENE) 21:15:11 145.870
CANX-2 05 Mar 21:07:54 21:11:58 46° 261° (W) 21:16:05 2200.000
HUMSAT D 05 Mar 21:09:10 21:12:51 32° 59° (ENE) 21:16:33 437.325/437.525
DX 1 05 Mar 21:09:16 21:13:31 51° 63° (ENE) 21:17:49 434.975-435.025
CUBEBUG 2 05 Mar 21:09:32 21:13:52 62° 68° (ENE) 21:18:06 437.445
CUBESAT XI-V 05 Mar 21:09:48 21:14:12 38° 301° (WNW) 21:18:32 437.345
CINEMA 3 05 Mar 21:12:36 21:17:12 86° 253° (WSW) 21:21:37 145.822/145.860
GOMX 1 05 Mar 21:13:03 21:18:04 48° 261° (W) 21:22:46 467.674
HO-68 05 Mar 21:19:13 21:26:08 49° 261° (W) 21:33:04 435.675
CUBEBUG 1 05 Mar 21:21:08 21:24:34 23° 50° (NE) 21:28:04 437.445
BEESAT 3 05 Mar 21:24:35 21:28:39 49° 356° (N) 21:32:44 437.485
CUTE 1.7 + AOD 2 05 Mar 21:26:14 21:30:09 36° 265° (W) 21:34:05 437.475
BRITE-PL 05 Mar 21:26:54 21:31:49 33° 268° (W) 21:36:25 437.365/2234.400
AISAT 05 Mar 21:29:06 21:33:18 40° 59° (ENE) 21:37:32 437.250
FUNcube-1 05 Mar 21:31:00 21:35:15 68° 69° (ENE) 21:39:27 145.935
DOVE 4 05 Mar 21:31:11 21:35:55 44° 262° (W) 21:40:23 437.250
TISAT 1 05 Mar 21:32:27 21:34:07 12° 39° (NE) 21:35:53 437.305
ZACube-1 05 Mar 21:33:35 21:37:51 72° 69° (ENE) 21:42:04 437.345
UKube-1 05 Mar 21:34:07 21:38:28 73° 68° (ENE) 21:42:51 .
VELOX 1 05 Mar 21:36:48 21:41:03 44° 61° (ENE) 21:45:21 145.980
SPROUT 05 Mar 21:40:41 21:42:54 14° 42° (NE) 21:45:14 437.525
BEESAT 2 05 Mar 21:54:20 21:58:25 49° 1° (N) 22:02:31 435.950
AAUSAT CUBESAT 2 05 Mar 21:56:53 22:00:34 29° 267° (W) 22:04:15 437.432
PRISM 05 Mar 22:00:45 22:03:44 18° 313° (NW) 22:06:37 437.425
UWE-3 05 Mar 22:00:59 22:05:18 64° 257° (WSW) 22:09:31 435.000/436.395/437.385
COMPASS 1 05 Mar 22:02:41 22:06:11 25° 269° (W) 22:09:39 437.405
50 SAT 05 Mar 22:03:14 22:07:08 60° 67° (ENE) 22:11:03 437.505
UNISAT 6 05 Mar 22:05:02 22:05:52 11° 78° (ENE) 22:06:53 437.425
ESTCUBE 1 05 Mar 22:05:55 22:10:14 43° 61° (ENE) 22:14:35 437.505/2401.250
PCSat 05 Mar 22:10:56 22:16:20 68° 135° (SE) 22:21:46 145.827
AIST 2 05 Mar 22:11:37 22:15:51 50° 355° (N) 22:20:05 435.215
Oscar 11 05 Mar 22:15:25 22:19:25 36° 264° (W) 22:23:26 145.826/435.025
YUBILEINY 05 Mar 22:26:49 22:32:34 18° 360° (N) 22:38:20 435.215
TIGRISAT 05 Mar 22:27:04 22:29:34 15° 84° (E) 22:32:12 435.000
RS-15 05 Mar 22:30:38 22:38:26 24° 102° (ESE) 22:46:43 29.354- 29.394
GONETS M04 05 Mar 22:36:14 22:44:51 73° 98° (E) 22:53:33
SEEDS 05 Mar 22:37:32 22:39:37 13° 279° (W) 22:41:34 437.485
NANOSAT C BR1 05 Mar 22:42:13 22:44:11 13° 81° (E) 22:46:18 145.865
ANTELSAT 05 Mar 22:42:19 22:45:30 20° 88° (E) 22:48:46 437.575/2403.000
STRAND 1 05 Mar 22:42:20 22:46:13 21° 317° (NW) 22:50:01 437.568
DELFI C3 05 Mar 22:43:19 22:46:43 25° 269° (W) 22:50:07 145.870
HUMSAT D 05 Mar 22:44:27 22:48:32 52° 259° (W) 22:52:36 437.325/437.525
DX 1 05 Mar 22:45:56 22:49:59 34° 264° (W) 22:54:01 434.975-435.025
CUBEBUG 2 05 Mar 22:47:12 22:50:56 27° 268° (W) 22:54:34 437.445
CUBESAT XI-V 05 Mar 22:48:22 22:50:34 13° 323° (NW) 22:52:40 437.345
SWISSCUBE 05 Mar 22:49:01 22:51:52 16° 39° (NE) 22:54:49 437.505
CINEMA 3 05 Mar 22:51:50 22:55:06 19° 274° (W) 22:58:11 145.822/145.860
GOMX 1 05 Mar 22:55:35 22:57:25 12° 283° (WNW) 22:59:01 467.674
CUBEBUG 1 05 Mar 22:56:00 23:00:29 87° 72° (ENE) 23:04:59 437.445
BEESAT 05 Mar 22:56:48 22:59:45 17° 40° (NE) 23:02:47 436.000
BEESAT 3 05 Mar 23:03:03 23:07:13 62° 19° (NNE) 23:11:20 437.485
TISAT 1 05 Mar 23:05:00 23:08:59 39° 60° (ENE) 23:12:59 437.305
AISAT 05 Mar 23:05:34 23:09:55 46° 260° (W) 23:14:17 437.250
BUGSAT 1 05 Mar 23:06:51 23:09:27 16° 84° (E) 23:12:06 437.445
FUNcube-1 05 Mar 23:08:30 23:12:02 24° 270° (W) 23:15:29 145.935
ZACube-1 05 Mar 23:11:14 23:14:42 23° 270° (W) 23:18:04 437.345
UKube-1 05 Mar 23:11:32 23:15:07 24° 270° (W) 23:18:38 .
HO-68 05 Mar 23:11:58 23:15:56 15° 287° (WNW) 23:19:36 435.675
VELOX 1 05 Mar 23:13:26 23:17:43 41° 262° (W) 23:22:00 145.980
SPROUT 05 Mar 23:14:00 23:18:10 47° 63° (ENE) 23:22:21 437.525
DOVE 4 05 Mar 23:14:19 23:14:56 10° 284° (WNW) 23:15:21 437.250
QB50P1 05 Mar 23:15:12 23:18:34 23° 90° (E) 23:21:58 145.935-145.965
DANDE 05 Mar 23:15:30 23:18:09 15° 89° (E) 23:20:37 436.750
QB50P2 05 Mar 23:20:17 23:23:49 25° 91° (E) 23:27:22 145.880/145.840
CUSAT 1 05 Mar 23:23:11 23:26:09 17° 92° (E) 23:28:47 437.405
ITUPSAT 1 05 Mar 23:25:31 23:29:10 22° 47° (NE) 23:32:55 437.325
DUCHIFAT 1 05 Mar 23:32:00 23:35:43 29° 93° (E) 23:39:27 145.980
BEESAT 2 05 Mar 23:32:48 23:37:01 73° 24° (NNE) 23:41:12 435.950
50 SAT 05 Mar 23:39:08 23:42:28 25° 268° (W) 23:45:46 437.505
UNISAT 6 05 Mar 23:39:35 23:43:48 51° 101° (E) 23:48:02 437.425
UWE-3 05 Mar 23:40:38 23:42:46 13° 279° (W) 23:44:45 435.000/436.395/437.385
ESTCUBE 1 05 Mar 23:42:50 23:47:11 42° 262° (W) 23:51:33 437.505/2401.250
KKS-1 05 Mar 23:47:07 23:48:50 12° 36° (NE) 23:50:37 437.445
AIST 2 05 Mar 23:50:37 23:54:57 63° 19° (NNE) 23:59:13 435.215
PCSat 05 Mar 23:54:37 23:59:59 56° 338° (NNW) 00:05:23 145.827
POPSAT HIP 1 05 Mar 23:55:05 23:59:10 43° 99° (E) 00:03:13 437.405
POLYITAN 1 05 Mar 23:56:28 00:00:34 45° 99° (E) 00:04:39 437.675
TIGRISAT 06 Mar 00:02:52 00:07:10 74° 105° (ESE) 00:11:29 435.000
NANOSAT C BR1 06 Mar 00:16:45 00:20:59 64° 103° (ESE) 00:25:11 145.865
ANTELSAT 06 Mar 00:18:35 00:22:54 84° 290° (WNW) 00:27:15 437.575/2403.000
SWISSCUBE 06 Mar 00:24:14 00:28:50 48° 61° (ENE) 00:33:29 437.505
HUMSAT D 06 Mar 00:24:27 00:25:22 10° 281° (WNW) 00:26:07 437.325/437.525
YUBILEINY 06 Mar 00:26:21 00:33:22 25° 32° (NNE) 00:40:30 435.215
BEESAT 06 Mar 00:32:07 00:36:44 51° 62° (ENE) 00:41:25 436.000
CUBEBUG 1 06 Mar 00:34:05 00:37:29 21° 273° (W) 00:40:49 437.445
GONETS M04 06 Mar 00:34:07 00:42:25 46° 304° (NW) 00:50:44
RS-15 06 Mar 00:38:02 00:48:36 61° 129° (SE) 00:59:34 29.354- 29.394
TISAT 1 06 Mar 00:40:41 00:44:48 43° 261° (W) 00:48:55 437.305
BEESAT 3 06 Mar 00:41:15 00:45:20 54° 221° (SW) 00:49:22 437.485
BUGSAT 1 06 Mar 00:41:28 00:45:42 80° 106° (ESE) 00:49:51 437.445
AISAT 06 Mar 00:47:34 00:47:47 10° 283° (WNW) 00:47:48 437.250
SPROUT 06 Mar 00:50:23 00:54:25 36° 264° (W) 00:58:26 437.525
QB50P1 06 Mar 00:50:41 00:54:57 73° 290° (WNW) 00:59:10 145.935-145.965
DANDE 06 Mar 00:55:49 01:01:10 70° 105° (ESE) 01:05:08 436.750
QB50P2 06 Mar 00:55:54 01:00:09 66° 292° (WNW) 01:04:21 145.880/145.840
AUBIESAT-1 06 Mar 01:01:05 01:01:30 10° 24° (NNE) 01:01:58 437.475
ITUPSAT 1 06 Mar 01:01:41 01:06:30 76° 69° (ENE) 01:11:21 437.325
M-CUBED/EXP-1 PRIME 06 Mar 01:01:55 01:02:43 11° 25° (NNE) 01:03:34 437.505
CUSAT 1 06 Mar 01:03:56 01:08:48 87° 287° (WNW) 01:12:27 437.405
DUCHIFAT 1 06 Mar 01:07:41 01:11:51 55° 295° (WNW) 01:15:58 145.980
Oscar 19 06 Mar 01:10:23 01:13:37 17° 82° (E) 01:17:00 437.125/150
BEESAT 2 06 Mar 01:11:07 01:15:04 40° 226° (SW) 01:18:58 435.950
UNISAT 6 06 Mar 01:16:37 01:20:31 34° 302° (WNW) 01:24:25 437.425
STARS 06 Mar 01:18:26 01:22:10 28° 54° (NE) 01:25:56 437.465
KKS-1 06 Mar 01:20:20 01:24:25 36° 58° (ENE) 01:28:32 437.445
AIST 2 06 Mar 01:29:21 01:33:35 54° 221° (SW) 01:37:46 435.215
POPSAT HIP 1 06 Mar 01:31:06 01:35:05 38° 300° (WNW) 01:38:59 437.405
POLYITAN 1 06 Mar 01:32:33 01:36:30 37° 300° (WNW) 01:40:23 437.675
SO-50 06 Mar 01:33:43 01:36:56 19° 119° (ESE) 01:40:19 436.795
PCSat 06 Mar 01:39:00 01:44:14 45° 3° (N) 01:49:29 145.827
TIGRISAT 06 Mar 01:40:04 01:43:37 25° 306° (NW) 01:47:08 435.000
NANOSAT C BR1 06 Mar 01:52:58 01:56:38 28° 304° (NW) 02:00:14 145.865
ANTELSAT 06 Mar 01:56:00 01:59:14 21° 310° (NW) 02:02:26 437.575/2403.000
SWISSCUBE 06 Mar 02:02:16 02:06:49 41° 263° (W) 02:11:25 437.505
BEESAT 06 Mar 02:10:16 02:14:47 39° 264° (W) 02:19:17 436.000
BUGSAT 1 06 Mar 02:17:25 02:20:49 24° 308° (NW) 02:24:08 437.445
BEESAT 3 06 Mar 02:20:17 02:22:41 15° 242° (WSW) 02:24:59 437.485
YUBILEINY 06 Mar 02:23:57 02:32:37 55° 61° (ENE) 02:41:18 435.215
QB50P1 06 Mar 02:27:15 02:30:15 19° 312° (NW) 02:33:10 145.935-145.965
AUBIESAT-1 06 Mar 02:32:17 02:35:17 26° 46° (NE) 02:38:31 437.475
QB50P2 06 Mar 02:32:34 02:35:25 17° 313° (NW) 02:38:11 145.880/145.840
M-CUBED/EXP-1 PRIME 06 Mar 02:33:32 02:36:36 28° 47° (NE) 02:39:54 437.505
GONETS M04 06 Mar 02:35:30 02:42:04 22° 335° (NNW) 02:48:32
DANDE 06 Mar 02:40:37 02:44:45 25° 302° (WNW) 02:48:00 436.750
ITUPSAT 1 06 Mar 02:40:55 02:44:57 25° 270° (W) 02:48:57 437.325
DUCHIFAT 1 06 Mar 02:44:26 02:46:58 15° 316° (NW) 02:49:25 145.980
Oscar 19 06 Mar 02:48:53 02:54:02 68° 105° (ESE) 02:59:10 437.125/150
CUSAT 1 06 Mar 02:49:03 02:52:02 17° 306° (NW) 02:54:30 437.405
RS-15 06 Mar 02:49:47 03:00:49 81° 340° (NNW) 03:12:17 29.354- 29.394
Gurwin Techsat 1B 06 Mar 02:50:17 02:54:54 29° 90° (E) 02:59:32 435.225
BEESAT 2 06 Mar 02:51:34 02:52:18 10° 246° (WSW) 02:52:54 435.950
STARS 06 Mar 02:53:55 02:58:21 72° 255° (WSW) 03:02:47 437.465
UNISAT 6 06 Mar 02:55:04 02:56:17 11° 323° (NW) 02:57:24 437.425
ITAMSAT 1 06 Mar 02:55:43 03:00:33 36° 95° (E) 03:05:22 435.822/435.867
KKS-1 06 Mar 02:56:36 03:01:00 52° 259° (WSW) 03:05:24 437.445
MOZHAYETS 4 06 Mar 02:59:25 03:03:12 26° 53° (NE) 03:07:03
HORYU 2 06 Mar 03:06:50 03:08:50 13° 81° (E) 03:10:57 437.375
POPSAT HIP 1 06 Mar 03:08:21 03:10:00 12° 321° (NW) 03:11:33 437.405
AIST 2 06 Mar 03:08:53 03:11:27 15° 242° (WSW) 03:13:54 435.215
POLYITAN 1 06 Mar 03:09:55 03:11:27 12° 322° (NW) 03:12:53 437.675
SO-50 06 Mar 03:12:04 03:16:44 60° 140° (SE) 03:21:33 436.795
PCSat 06 Mar 03:22:57 03:28:23 66° 28° (NNE) 03:33:50 145.827
JAS-2 06 Mar 03:31:24 03:36:12 19° 75° (ENE) 03:41:27 435.910
CUBESAT XI-V 06 Mar 03:34:49 03:36:45 13° 36° (NE) 03:38:48 437.345
STRAND 1 06 Mar 03:35:35 03:37:56 13° 30° (NNE) 03:40:22 437.568
AO-7 06 Mar 03:57:36 04:04:20 27° 85° (E) 04:11:12 29.400- 29.500
AUBIESAT-1 06 Mar 04:06:29 04:09:56 62° 248° (WSW) 04:13:41 437.475
M-CUBED/EXP-1 PRIME 06 Mar 04:07:58 04:11:23 55° 250° (WSW) 04:15:05 437.505
PRISM 06 Mar 04:15:51 04:18:37 18° 46° (NE) 04:21:27 437.425
YUBILEINY 06 Mar 04:21:06 04:29:46 60° 267° (W) 04:38:21 435.215
Oscar 19 06 Mar 04:28:33 04:33:10 34° 306° (NW) 04:37:44 437.125/150
Gurwin Techsat 1B 06 Mar 04:30:05 04:35:26 75° 293° (WNW) 04:40:46 435.225
STARS 06 Mar 04:32:58 04:35:41 15° 277° (W) 04:38:17 437.465
ITAMSAT 1 06 Mar 04:35:12 04:40:22 60° 297° (WNW) 04:45:31 435.822/435.867
MOZHAYETS 4 06 Mar 04:35:27 04:40:04 80° 255° (WSW) 04:44:44
KKS-1 06 Mar 04:37:16 04:38:47 11° 281° (WNW) 04:40:08 437.445
GONETS M04 06 Mar 04:37:19 04:43:00 18° 7° (N) 04:48:44
HORYU 2 06 Mar 04:42:05 04:46:31 59° 103° (ESE) 04:50:55 437.375
SO-50 06 Mar 04:52:35 04:57:22 66° 344° (NNW) 05:02:17 436.795
RS-15 06 Mar 05:03:02 05:14:10 75° 10° (N) 05:25:49 29.354- 29.394
PCSat 06 Mar 05:06:32 05:11:48 50° 231° (SW) 05:17:02 145.827
CUBESAT XI-V 06 Mar 05:08:48 05:13:05 36° 58° (ENE) 05:17:26 437.345
STRAND 1 06 Mar 05:11:18 05:15:51 33° 53° (NE) 05:20:28 437.568
JAS-2 06 Mar 05:15:46 05:22:54 55° 98° (E) 05:30:35 435.910
AUBIESAT-1 06 Mar 05:44:48 05:45:47 11° 272° (W) 05:46:39 437.475
PRISM 06 Mar 05:49:19 05:53:29 66° 67° (ENE) 05:57:41 437.425
AO-7 06 Mar 05:50:18 05:58:40 76° 111° (ESE) 06:07:00 29.400- 29.500
AIST 1 06 Mar 06:00:03 06:01:24 11° 76° (ENE) 06:02:55
Oscar 19 06 Mar 06:08:50 06:11:17 13° 329° (NNW) 06:13:38 437.125/150
Gurwin Techsat 1B 06 Mar 06:10:33 06:14:47 24° 315° (NW) 06:18:57 435.225
MOZHAYETS 4 06 Mar 06:14:54 06:18:06 18° 276° (W) 06:21:13
ITAMSAT 1 06 Mar 06:15:17 06:19:05 20° 319° (NW) 06:22:48 435.822/435.867
YUBILEINY 06 Mar 06:18:44 06:24:55 21° 293° (WNW) 06:30:50 435.215
HORYU 2 06 Mar 06:19:02 06:23:01 32° 304° (NW) 06:26:58 437.375
